This is the latest recevied weather packets stored in our database for station/object OE9FWV. If no packets are shown the sender has not sent any weather packets the latest 10 day(s).
| Time | Temp. | Humidity | Pressure | Rain* | Wind** | Luminosity | Snow |
|---|---|---|---|---|---|---|---|
| 1777772472 | 14.44° C | 58% | 1015.6 hPa | 0 mm | - | - | - |
| 1777771873 | 14.44° C | 58% | 1015.7 hPa | 0 mm | - | - | - |
| 1777771269 | 15° C | 58% | 1015.7 hPa | 0 mm | - | - | - |
| 1777770060 | 15.56° C | 55% | 1015.6 hPa | 0 mm | - | - | - |
| 1777768857 | 16.11° C | 54% | 1015.6 hPa | 0 mm | - | - | - |
| 1777767647 | 15.56° C | 55% | 1015.6 hPa | 0 mm | - | - | - |
| 1777767042 | 15.56° C | 55% | 1015.7 hPa | 0 mm | - | - | - |
| 1777766437 | 16.11° C | 54% | 1015.6 hPa | 0 mm | - | - | - |
| 1777765226 | 17.78° C | 51% | 1015.6 hPa | 0 mm | - | - | - |
| 1777764625 | 17.78° C | 48% | 1015.6 hPa | 0 mm | - | - | - |
| 1777763411 | 18.33° C | 48% | 1015.6 hPa | 0 mm | - | - | - |
| 1777762811 | 18.33° C | 47% | 1015.6 hPa | 0 mm | - | - | - |
| 1777762208 | 18.89° C | 47% | 1015.6 hPa | 0 mm | - | - | - |
| 1777761603 | 19.44° C | 45% | 1015.7 hPa | 0 mm | - | - | - |
| 1777760998 | 19.44° C | 45% | 1015.6 hPa | 0 mm | - | - | - |
| 1777760397 | 19.44° C | 45% | 1015.7 hPa | 0 mm | - | - | - |
| 1777758584 | 19.44° C | 45% | 1015.6 hPa | 0 mm | - | - | - |
| 1777757377 | 19.44° C | 45% | 1015.7 hPa | 0 mm | - | - | - |
| 1777756777 | 19.44° C | 45% | 1015.7 hPa | 0 mm | - | - | - |
| 1777756168 | 19.44° C | 45% | 1015.8 hPa | 0 mm | - | - | - |
| 1777755568 | 20° C | 45% | 1015.7 hPa | 0 mm | - | - | - |
| 1777754966 | 20° C | 44% | 1015.9 hPa | 0 mm | - | - | - |
| 1777754360 | 20° C | 45% | 1015.9 hPa | 0 mm | - | - | - |
| 1777753755 | 19.44° C | 45% | 1016.1 hPa | 0 mm | - | - | - |
| 1777753154 | 19.44° C | 45% | 1016 hPa | 0 mm | - | - | - |
* Rain latest hour (hover to see other rain measurements)
** Current wind speed in m/s (hover to see current wind gust speed)